datetime,area
1977-03-18,140.5
1977-03-19,157.08
1977-03-20,178.0
1977-03-21,191.32
1977-03-22,193.12
1977-03-23,201.6
1977-03-24,207.0
1977-03-25,211.0
1977-03-26,209.6
1977-03-27,207.4
1977-03-28,206.4
1977-03-29,205.2
1977-03-30,205.2
1977-03-31,205.36
1977-04-01,215.0
1977-04-02,211.4
1977-04-03,212.6
1977-04-04,211.4
1977-04-05,212.0
1977-04-06,213.6
1977-04-07,207.8
1977-04-08,224.58
1977-04-09,249.04
1977-04-10,274.25
1977-04-11,288.82
1977-04-12,285.5
1977-04-13,290.12
1977-04-14,286.75
1977-04-15,287.78
1977-04-16,289.6
1977-04-17,289.08
1977-04-18,285.5
1977-04-19,287.0
1977-04-20,290.9
1977-04-21,287.0
1977-04-22,281.0
1977-04-23,268.5
1977-04-24,253.12
1977-04-25,238.72
1977-04-26,224.8
1977-04-27,223.26
1977-04-28,220.4
1977-04-29,216.0
1977-04-30,201.2
1977-05-01,192.94
1977-05-02,190.96
1977-05-03,190.24
1977-05-04,190.24
1977-05-05,190.6
1977-05-06,192.94
1977-05-07,197.4
1977-05-08,205.6
1977-05-09,215.2
1977-05-10,225.24
1977-05-11,233.16
1977-05-12,229.42
1977-05-13,243.04
1977-05-14,252.16
1977-05-15,250.72
1977-05-16,252.16
1977-05-17,264.25
1977-05-18,241.36
1977-05-19,249.76
1977-05-20,236.68
1977-05-21,228.1
1977-05-22,226.78
1977-05-23,236.24
1977-05-24,240.16
1977-05-25,245.44
1977-05-26,246.64
1977-05-27,247.84
1977-05-28,241.6
1977-05-29,228.98
1977-05-30,222.38
1977-05-31,222.38
1977-06-01,236.24
1977-06-02,244.48
1977-06-03,251.44
1977-06-04,255.04
1977-06-05,256.0
1977-06-06,250.0
1977-06-07,251.2
1977-06-08,256.48
1977-06-09,251.44
1977-06-10,251.2
1977-06-11,252.4
1977-06-12,228.98
1977-06-13,231.84
1977-06-14,232.28
1977-06-15,230.08
1977-06-16,231.62
1977-06-17,236.9
1977-06-18,230.08
1977-06-19,223.7
1977-06-20,237.34
1977-06-21,246.88
1977-06-22,261.52
1977-06-23,256.48
1977-06-24,270.5
1977-06-25,269.75
1977-06-26,276.25
1977-06-27,274.5
1977-06-28,260.56
1977-06-29,262.0
1977-06-30,257.68
1977-07-01,269.5
1977-07-02,258.4
1977-07-03,258.88
1977-07-04,252.4
1977-07-05,264.5
1977-07-06,267.0
1977-07-07,268.0
1977-07-08,269.25
1977-07-09,257.68
1977-07-10,241.84
1977-07-11,233.16
1977-07-12,248.8
1977-07-13,262.0
1977-07-14,263.25
1977-07-15,263.25
1977-07-16,253.84
1977-07-17,241.12
1977-07-18,248.08
1977-07-19,253.84
1977-07-20,250.72
1977-07-21,246.64
1977-07-22,258.4
1977-07-23,250.72
1977-07-24,251.2
1977-07-25,238.0
1977-07-26,248.8
1977-07-27,250.36
1977-07-28,257.2
1977-07-29,262.0
1977-07-30,260.8
1977-07-31,253.36
1977-08-01,263.25
1977-08-02,261.52
1977-08-03,260.8
1977-08-04,264.5
1977-08-05,257.44
1977-08-06,247.36
1977-08-07,263.0
1977-08-08,253.12
1977-08-09,249.76
1977-08-10,252.4
1977-08-11,265.0
1977-08-12,274.0
1977-08-13,258.88
1977-08-14,236.24
1977-08-15,250.24
1977-08-16,258.16
1977-08-17,253.12
1977-08-18,258.64
1977-08-19,269.25
1977-08-20,251.2
1977-08-21,238.96
1977-08-22,244.96
1977-08-23,246.88
1977-08-24,247.36
1977-08-25,254.32
1977-08-26,258.16
1977-08-27,240.4
1977-08-28,231.4
1977-08-29,235.14
1977-08-30,245.2
1977-08-31,246.88
1977-09-01,259.36
1977-09-02,254.56
1977-09-03,245.92
1977-09-04,242.8
1977-09-05,246.16
1977-09-06,258.64
1977-09-07,257.44
1977-09-08,257.68
1977-09-09,257.2
1977-09-10,252.4
1977-09-11,245.2
1977-09-12,254.8
1977-09-13,250.96
1977-09-14,245.92
1977-09-15,246.88
1977-09-16,242.8
1977-09-17,248.32
1977-09-18,250.48
1977-09-19,259.62
1977-09-20,267.0
1977-09-21,267.5
1977-09-22,263.75
1977-09-23,264.55
1977-09-24,261.28
1977-09-25,264.5
1977-09-26,262.25
1977-09-27,262.0
1977-09-28,264.5
1977-09-29,262.75
1977-09-30,265.75
1977-10-01,262.0
1977-10-02,262.0
1977-10-03,262.0
1977-10-04,264.5
1977-10-05,264.75
1977-10-06,262.0
1977-10-07,262.0
1977-10-08,267.0
1977-10-09,264.8
1977-10-10,262.0
1977-10-11,258.4
1977-10-12,262.0
1977-10-13,259.6
1977-10-14,252.4
1977-10-15,244.24
1977-10-16,232.28
1977-10-17,219.08
1977-10-18,215.2
1977-10-19,217.32
1977-10-20,214.2
1977-10-21,215.0
1977-10-22,219.96
1977-10-23,218.71
1977-10-24,216.66
1977-10-25,212.4
1977-10-26,219.08
1977-10-27,217.32
1977-10-28,214.4
1977-10-29,216.44
1977-10-30,215.2
1977-10-31,215.0
1977-11-01,216.44
1977-11-02,214.2
1977-11-03,215.0
1977-11-04,216.0
1977-11-05,214.6
1977-11-06,218.64
1977-11-07,214.4
1977-11-08,215.4
1977-11-09,212.4
1977-11-10,212.0
1977-11-11,214.6
1977-11-12,218.2
1977-11-13,214.2
1977-11-14,211.2
1977-11-15,219.52
1977-11-16,214.4
1977-11-17,214.4
1977-11-18,214.8
1977-11-19,213.4
1977-11-20,211.6
1977-11-21,219.96
1977-11-22,219.3
1977-11-23,215.6
1977-11-24,210.0
1977-11-25,214.2
1977-11-26,214.8
1977-11-27,217.98
1977-11-28,218.86
1977-11-29,218.2
1977-11-30,216.88
1977-12-01,215.0
1977-12-02,217.87
1977-12-03,214.4
1977-12-04,212.8
1977-12-05,216.44
1977-12-06,217.32
1977-12-07,215.6
1977-12-08,217.1
1977-12-09,216.04
1977-12-10,215.0
1977-12-11,210.2
1977-12-12,205.4
1977-12-13,205.0
1977-12-14,199.4
1977-12-15,195.82
1977-12-16,191.14
1977-12-17,186.28
1977-12-18,181.6
1977-12-19,178.9
1977-12-20,176.3
1977-12-21,181.06
1977-12-22,185.49
1977-12-23,189.34
1977-12-24,189.0
1977-12-25,189.16
1977-12-26,189.99
1977-12-27,194.56
1977-12-28,201.14
1977-12-29,208.86
1977-12-30,210.68
1977-12-31,207.82
1978-01-01,206.88
1978-01-02,205.42
1978-01-03,208.4
1978-01-04,209.2
1978-01-05,209.8
1978-01-06,206.4
1978-01-07,206.5
1978-01-08,204.22
1978-01-09,202.12
1978-01-10,207.2
1978-01-11,202.4
1978-01-12,196.2
1978-01-13,201.8
1978-01-14,199.8
1978-01-15,196.18
1978-01-16,197.76
1978-01-17,198.4
1978-01-18,197.7
1978-01-19,204.6
1978-01-20,203.8
1978-01-21,199.2
1978-01-22,191.32
1978-01-23,199.4
1978-01-24,194.92
1978-01-25,196.0
1978-01-26,201.0
1978-01-27,194.38
1978-01-28,196.0
1978-01-29,192.76
1978-01-30,194.38
1978-01-31,198.2
1978-02-01,197.0
1978-02-02,202.34
1978-02-03,197.0
1978-02-04,192.58
1978-02-05,189.41
1978-02-06,196.68
1978-02-07,193.3
1978-02-08,197.16
1978-02-09,194.09
1978-02-10,198.16
1978-02-11,200.68
1978-02-12,196.28
1978-02-13,195.91
1978-02-14,194.72
1978-02-15,196.18
1978-02-16,194.43
1978-02-17,193.91
1978-02-18,193.05
1978-02-19,192.36
1978-02-20,199.0
1978-02-21,199.2
1978-02-22,196.58
1978-02-23,196.12
1978-02-24,188.71
1978-02-25,193.43
1978-02-26,191.32
1978-02-27,198.02
1978-02-28,194.38
1978-03-01,197.44
1978-03-02,197.66
1978-03-03,195.73
1978-03-04,193.35
1978-03-05,194.2
1978-03-06,197.62
1978-03-07,195.77
1978-03-08,197.32
1978-03-09,197.88
1978-03-10,200.76
1978-03-11,197.42
1978-03-12,193.39
1978-03-13,193.23
1978-03-14,191.18
1978-03-15,187.49
1978-03-16,196.8
1978-03-17,195.17
1978-03-18,194.56
1978-03-19,188.21
1978-03-20,196.6
1978-03-21,196.54
1978-03-22,198.6
1978-03-23,198.88
1978-03-24,196.58
1978-03-25,193.14
1978-03-26,193.3
1978-03-27,198.72
1978-03-28,197.56
1978-03-29,194.42
1978-03-30,192.71
1978-03-31,195.69
1978-04-01,196.26
1978-04-02,193.73
1978-04-03,196.14
1978-04-04,193.8
1978-04-05,200.26
1978-04-06,201.24
1978-04-07,200.94
1978-04-08,198.66
1978-04-09,201.8
1978-04-10,199.94
1978-04-11,201.04
1978-04-12,202.7
1978-04-13,211.6
1978-04-14,220.66
1978-04-15,204.8
1978-04-16,202.72
1978-04-17,206.96
1978-04-18,210.32
1978-04-19,216.62
1978-04-20,214.8
1978-04-21,205.48
1978-04-22,192.69
1978-04-23,183.72
1978-04-24,176.06
1978-04-25,178.04
1978-04-26,180.36
1978-04-27,177.56
1978-04-28,177.32
1978-04-29,179.1
1978-04-30,176.81
1978-05-01,180.16
1978-05-02,177.88
1978-05-03,175.03
1978-05-04,174.45
1978-05-05,175.2
1978-05-06,174.6
1978-05-07,176.52
1978-05-08,173.41
1978-05-09,178.74
1978-05-10,179.44
1978-05-11,176.3
1978-05-12,180.12
1978-05-13,182.5
1978-05-14,180.0
1978-05-15,179.75
1978-05-16,180.03
1978-05-17,181.24
1978-05-18,178.47
1978-05-19,177.58
1978-05-20,177.34
1978-05-21,180.54
1978-05-22,178.49
1978-05-23,179.08
1978-05-24,178.85
1978-05-25,179.03
1978-05-26,179.94
1978-05-27,176.5
1978-05-28,179.8
1978-05-29,178.31
1978-05-30,180.56
1978-05-31,176.9
1978-06-01,179.78
1978-06-02,179.91
1978-06-03,179.84
1978-06-04,180.81
1978-06-05,178.85
1978-06-06,180.65
1978-06-07,211.08
1978-06-08,222.42
1978-06-09,227.09
1978-06-10,237.96
1978-06-11,252.4
1978-06-12,264.25
1978-06-13,267.27
1978-06-14,269.4
1978-06-15,268.08
1978-06-16,262.85
1978-06-17,259.7
1978-06-18,260.56
1978-06-19,256.86
1978-06-20,263.12
1978-06-21,257.49
1978-06-22,263.2
1978-06-23,271.53
1978-06-24,272.1
1978-06-25,269.03
1978-06-26,279.6
1978-06-27,284.7
1978-06-28,285.9
1978-06-29,294.38
1978-06-30,293.58
1978-07-01,292.51
1978-07-02,290.77
1978-07-03,290.74
1978-07-04,291.84
1978-07-05,292.43
1978-07-06,292.59
1978-07-07,292.36
1978-07-08,292.46
1978-07-09,290.9
1978-07-10,290.85
1978-07-11,290.67
1978-07-12,289.65
1978-07-13,290.77
1978-07-14,293.73
1978-07-15,291.84
1978-07-16,287.29
1978-07-17,292.56
1978-07-18,286.1
1978-07-19,286.85
1978-07-20,287.34
1978-07-21,290.04
1978-07-22,291.08
1978-07-23,289.68
1978-07-24,288.3
1978-07-25,291.08
1978-07-26,291.86
1978-07-27,292.36
1978-07-28,289.26
1978-07-29,288.43
1978-07-30,284.45
1978-07-31,287.36
1978-08-01,288.22
1978-08-02,288.04
1978-08-03,289.7
1978-08-04,289.13
1978-08-05,290.8
1978-08-06,290.77
1978-08-07,290.69
1978-08-08,290.8
1978-08-09,292.2
1978-08-10,289.18
1978-08-11,290.77
1978-08-12,290.04
1978-08-13,289.91
1978-08-14,289.78
1978-08-15,290.82
1978-08-16,291.06
1978-08-17,291.08
1978-08-18,287.34
1978-08-19,284.87
1978-08-20,285.92
1978-08-21,288.38
1978-08-22,287.03
1978-08-23,291.73
1978-08-24,291.03
1978-08-25,289.73
1978-08-26,289.81
1978-08-27,290.9
1978-08-28,290.95
1978-08-29,292.51
1978-08-30,285.72
1978-08-31,289.44
1978-09-01,288.4
1978-09-02,290.95
1978-09-03,288.25
1978-09-04,285.95
1978-09-05,288.51
1978-09-06,288.43
1978-09-07,288.2
1978-09-08,285.98
1978-09-09,284.85
1978-09-10,287.65
1978-09-11,287.0
1978-09-12,288.17
1978-09-13,289.6
1978-09-14,289.55
1978-09-15,289.65
1978-09-16,284.8
1978-09-17,287.36
1978-09-18,283.05
1978-09-19,288.17
1978-09-20,289.83
1978-09-21,285.85
1978-09-22,288.4
1978-09-23,285.7
1978-09-24,288.27
1978-09-25,287.21
1978-09-26,285.9
1978-09-27,294.7
1978-09-28,296.57
1978-09-29,294.8
1978-09-30,293.66
1978-10-01,293.34
1978-10-02,293.71
1978-10-03,294.57
1978-10-04,295.22
1978-10-05,296.31
1978-10-06,295.87
1978-10-07,294.31
1978-10-08,293.66
1978-10-09,295.01
1978-10-10,293.55
1978-10-11,296.91
1978-10-12,296.15
1978-10-13,293.45
1978-10-14,288.07
1978-10-15,294.8
1978-10-16,294.96
1978-10-17,296.1
1978-10-18,294.54
1978-10-19,292.36
1978-10-20,294.33
1978-10-21,294.85
1978-10-22,293.55
1978-10-23,292.49
1978-10-24,292.49
1978-10-25,293.34
1978-10-26,287.47
1978-10-27,290.72
1978-10-28,291.32
1978-10-29,286.85
1978-10-30,292.64
1978-10-31,288.07
1978-11-01,288.64
1978-11-02,287.16
1978-11-03,288.59
1978-11-04,291.65
1978-11-05,290.33
1978-11-06,294.33
1978-11-07,293.58
1978-11-08,288.85
1978-11-09,290.35
1978-11-10,286.45
1978-11-11,285.07
1978-11-12,272.8
1978-11-13,269.83
1978-11-14,279.63
1978-11-15,285.5
1978-11-16,284.95
1978-11-17,287.42
1978-11-18,287.26
1978-11-19,287.42
1978-11-20,291.76
1978-11-21,293.11
1978-11-22,291.37
1978-11-23,288.27
1978-11-24,284.13
1978-11-25,289.47
1978-11-26,284.95
1978-11-27,283.3
1978-11-28,287.68
1978-11-29,289.94
1978-11-30,288.07
1978-12-01,286.77
1978-12-02,296.0
1978-12-03,291.91
1978-12-04,286.7
1978-12-05,289.83
1978-12-06,288.64
1978-12-07,287.05
1978-12-08,289.16
1978-12-09,286.63
1978-12-10,284.25
1978-12-11,282.5
1978-12-12,287.91
1978-12-13,291.89
1978-12-14,287.62
1978-12-15,288.27
1978-12-16,286.38
1978-12-17,284.23
1978-12-18,286.38
1978-12-19,285.92
1978-12-20,285.13
1978-12-21,282.35
1978-12-22,288.51
1978-12-23,288.87
1978-12-24,285.52
1978-12-25,288.72
1978-12-26,290.8
1978-12-27,287.52
1978-12-28,286.65
1978-12-29,290.77
1978-12-30,290.25
1978-12-31,286.7
1979-01-01,289.63
1979-01-02,288.46
1979-01-03,291.6
1979-01-04,282.63
1979-01-05,292.49
1979-01-06,282.45
1979-01-07,292.25
1979-01-08,281.63
1979-01-09,290.33
1979-01-10,292.2
1979-01-11,292.28
1979-01-12,290.09
1979-01-13,291.91
1979-01-14,287.68
1979-01-15,282.5
1979-01-16,291.13
1979-01-17,287.03
1979-01-18,289.47
1979-01-19,284.7
1979-01-20,270.55
1979-01-21,266.35
1979-01-22,272.4
1979-01-23,278.45
1979-01-24,285.38
1979-01-25,287.6
1979-01-26,284.03
1979-01-27,286.43
1979-01-28,286.5
1979-01-29,288.82
1979-01-30,289.57
1979-01-31,290.74
1979-02-01,289.39
1979-02-02,290.22
1979-02-03,289.24
1979-02-04,289.24
1979-02-05,286.4
1979-02-06,286.32
1979-02-07,285.5
1979-02-08,286.45
1979-02-09,295.03
1979-02-10,300.0
1979-02-11,300.0
1979-02-12,298.47
1979-02-13,296.1
1979-02-14,294.98
1979-02-15,295.45
1979-02-16,294.36
1979-02-17,293.14
1979-02-18,291.65
1979-02-19,289.5
1979-02-20,287.52
1979-02-21,285.58
1979-02-22,283.75
1979-02-23,290.9
1979-02-24,293.21
1979-02-25,287.88
1979-02-26,295.94
1979-02-27,295.01
1979-02-28,292.95
1979-03-01,293.79
1979-03-02,295.27
1979-03-03,289.83
1979-03-04,292.28
1979-03-05,294.59
1979-03-06,289.08
1979-03-07,289.81
1979-03-08,292.41
1979-03-09,289.57
1979-03-10,292.54
1979-03-11,290.22
1979-03-12,287.99
1979-03-13,295.4
1979-03-14,293.24
1979-03-15,296.23
1979-03-16,291.94
1979-03-17,291.47
1979-03-18,292.88
1979-03-19,296.62
1979-03-20,300.0
1979-03-21,299.09
1979-03-22,297.74
1979-03-23,297.71
1979-03-24,295.58
1979-03-25,295.19
1979-03-26,296.13
1979-03-27,297.37
1979-03-28,296.44
1979-03-29,299.51
1979-03-30,299.35
1979-03-31,296.57
1979-04-01,297.01
1979-04-02,297.32
1979-04-03,298.93
1979-04-04,294.2
1979-04-05,291.81
1979-04-06,287.99
1979-04-07,287.1
1979-04-08,292.04
1979-04-09,297.19
1979-04-10,298.36
1979-04-11,297.01
1979-04-12,293.92
1979-04-13,295.09
1979-04-14,294.05
1979-04-15,288.61
1979-04-16,292.9
1979-04-17,291.89
1979-04-18,296.18
1979-04-19,292.72
1979-04-20,293.81
1979-04-21,289.11
1979-04-22,294.38
1979-04-23,298.57
1979-04-24,294.05
1979-04-25,287.31
1979-04-26,293.71
1979-04-27,299.14
1979-04-28,294.85
1979-04-29,295.4
1979-04-30,290.54
1979-05-01,292.41
1979-05-02,295.63
1979-05-03,288.64
1979-05-04,298.78
1979-05-05,293.55
1979-05-06,290.77
1979-05-07,299.61
1979-05-08,298.05
1979-05-09,297.66
1979-05-10,286.1
1979-05-11,286.02
1979-05-12,291.11
1979-05-13,299.58
1979-05-14,296.31
1979-05-15,296.05
1979-05-16,297.97
1979-05-17,292.77
1979-05-18,291.0
1979-05-19,290.12
1979-05-20,286.05
1979-05-21,291.55
1979-05-22,293.73
1979-05-23,294.15
1979-05-24,296.07
1979-05-25,294.62
1979-05-26,293.6
1979-05-27,292.51
1979-05-28,294.44
1979-05-29,294.85
1979-05-30,295.48
1979-05-31,293.14
1979-06-01,296.13
1979-06-02,293.24
1979-06-03,291.34
1979-06-04,289.03
1979-06-05,294.62
1979-06-06,295.19
1979-06-07,294.85
1979-06-08,291.34
1979-06-09,288.33
1979-06-10,287.44
1979-06-11,284.95
1979-06-12,288.27
1979-06-13,295.32
1979-06-14,298.21
1979-06-15,293.86
1979-06-16,294.7
1979-06-17,290.22
1979-06-18,291.99
1979-06-19,288.74
1979-06-20,295.74
1979-06-21,293.03
1979-06-22,290.93
1979-06-23,295.16
1979-06-24,291.19
1979-06-25,296.15
1979-06-26,292.82
1979-06-27,296.15
1979-06-28,297.45
1979-06-29,292.75
1979-06-30,294.31
1979-07-01,285.13
1979-07-02,296.18
1979-07-03,297.3
1979-07-04,294.49
1979-07-05,295.55
1979-07-06,294.23
1979-07-07,295.45
1979-07-08,290.2
1979-07-09,293.76
1979-07-10,294.85
1979-07-11,297.89
1979-07-12,299.27
1979-07-13,298.39
1979-07-14,297.71
1979-07-15,297.61
1979-07-16,297.74
1979-07-17,293.89
1979-07-18,297.63
1979-07-19,298.23
1979-07-20,299.48
1979-07-21,300.23
1979-07-22,295.71
1979-07-23,299.51
1979-07-24,300.55
1979-07-25,298.73
1979-07-26,297.82
1979-07-27,300.6
1979-07-28,296.07
1979-07-29,297.82
1979-07-30,295.14
1979-07-31,300.73
1979-08-01,294.38
1979-08-02,296.75
1979-08-03,297.27
1979-08-04,296.1
1979-08-05,297.3
1979-08-06,299.53
1979-08-07,296.18
1979-08-08,295.87
1979-08-09,295.66
1979-08-10,295.14
1979-08-11,295.79
1979-08-12,296.75
1979-08-13,293.42
1979-08-14,288.56
1979-08-15,296.1
1979-08-16,297.4
1979-08-17,296.2
1979-08-18,299.48
1979-08-19,290.87
1979-08-20,296.39
1979-08-21,295.4
1979-08-22,284.85
1979-08-23,295.06
1979-08-24,294.98
1979-08-25,295.94
1979-08-26,298.86
1979-08-27,298.62
1979-08-28,298.0
1979-08-29,297.66
1979-08-30,299.27
1979-08-31,296.39
1979-09-01,296.96
1979-09-02,292.77
1979-09-03,297.56
1979-09-04,294.8
1979-09-05,294.18
1979-09-06,292.04
1979-09-07,294.15
1979-09-08,300.16
1979-09-09,297.87
1979-09-10,296.88
1979-09-11,293.55
1979-09-12,290.33
1979-09-13,294.05
1979-09-14,296.39
1979-09-15,295.24
1979-09-16,292.49
1979-09-17,293.68
1979-09-18,290.87
1979-09-19,297.45
1979-09-20,297.87
1979-09-21,291.89
1979-09-22,280.4
1979-09-23,288.59
1979-09-24,297.95
1979-09-25,299.27
1979-09-26,295.94
1979-09-27,296.98
1979-09-28,298.41
1979-09-29,294.67
1979-09-30,293.08
1979-10-01,296.23
1979-10-02,297.4
1979-10-03,296.15
1979-10-04,287.1
1979-10-05,280.45
1979-10-06,290.33
1979-10-07,293.19
1979-10-08,298.15
1979-10-09,294.57
1979-10-10,297.71
1979-10-11,291.5
1979-10-12,295.58
1979-10-13,294.18
1979-10-14,290.64
1979-10-15,286.25
1979-10-16,297.95
1979-10-17,294.98
1979-10-18,289.63
1979-10-19,289.34
1979-10-20,290.33
1979-10-21,284.8
1979-10-22,289.96
1979-10-23,295.22
1979-10-24,290.54
1979-10-25,291.99
1979-10-26,285.5
1979-10-27,279.85
1979-10-28,283.35
1979-10-29,297.06
1979-10-30,296.93
1979-10-31,291.24
1979-11-01,297.53
1979-11-02,287.88
1979-11-03,288.69
1979-11-04,286.7
1979-11-05,295.71
1979-11-06,297.71
1979-11-07,294.46
1979-11-08,289.91
1979-11-09,288.82
1979-11-10,271.53
1979-11-11,272.0
1979-11-12,270.9
1979-11-13,270.07
1979-11-14,275.82
1979-11-15,276.55
1979-11-16,274.25
1979-11-17,274.25
1979-11-18,271.2
1979-11-19,277.57
1979-11-20,276.87
1979-11-21,277.2
1979-11-22,272.35
1979-11-23,276.12
1979-11-24,275.7
1979-11-25,278.25
1979-11-26,290.74
1979-11-27,297.01
1979-11-28,294.36
1979-11-29,298.75
1979-11-30,296.49
1979-12-01,297.92
1979-12-02,283.08
1979-12-03,284.07
1979-12-04,284.77
1979-12-05,291.26
1979-12-06,295.01
1979-12-07,298.08
1979-12-08,296.39
1979-12-09,294.15
1979-12-10,295.5
1979-12-11,296.13
1979-12-12,294.62
1979-12-13,294.18
1979-12-14,287.62
1979-12-15,297.3
1979-12-16,286.93
1979-12-17,293.06
1979-12-18,286.43
1979-12-19,293.5
1979-12-20,292.1
1979-12-21,294.77
1979-12-22,299.79
1979-12-23,297.4
1979-12-24,292.51
1979-12-25,293.6
1979-12-26,285.25
1979-12-27,295.74
1979-12-28,290.67
1979-12-29,289.52
1979-12-30,285.38
1979-12-31,297.14
1980-01-01,285.18
1980-01-02,294.67
1980-01-03,291.45
1980-01-04,295.89
1980-01-05,290.74
1980-01-06,295.09
1980-01-07,297.22
1980-01-08,297.01
1980-01-09,287.29
1980-01-10,295.01
1980-01-11,295.01
1980-01-12,292.3
1980-01-13,296.65
1980-01-14,297.89
1980-01-15,296.98
1980-01-16,288.98
1980-01-17,286.63
1980-01-18,295.4
1980-01-19,290.04
1980-01-20,296.2
1980-01-21,292.56
1980-01-22,297.14
1980-01-23,292.95
1980-01-24,290.09
1980-01-25,299.66
1980-01-26,287.39
1980-01-27,288.12
1980-01-28,296.62
1980-01-29,299.38
1980-01-30,296.33
1980-01-31,297.3
1980-02-01,295.01
1980-02-02,290.67
1980-02-03,293.73
1980-02-04,291.13
1980-02-05,292.17
1980-02-06,295.29
1980-02-07,295.71
1980-02-08,296.39
1980-02-09,291.99
1980-02-10,295.22
1980-02-11,294.51
1980-02-12,293.79
1980-02-13,293.24
1980-02-14,297.53
1980-02-15,294.67
1980-02-16,302.34
1980-02-17,293.81
1980-02-18,299.17
1980-02-19,296.52
1980-02-20,294.36
1980-02-21,297.17
1980-02-22,292.75
1980-02-23,298.62
1980-02-24,289.18
1980-02-25,291.03
1980-02-26,290.12
1980-02-27,288.85
1980-02-28,295.58
1980-02-29,290.77
1980-03-01,292.72
1980-03-02,286.4
1980-03-03,282.9
1980-03-04,284.1
1980-03-05,291.11
1980-03-06,291.94
1980-03-07,290.61
1980-03-08,291.29
1980-03-09,283.65
1980-03-10,292.69
1980-03-11,288.04
1980-03-12,292.36
1980-03-13,292.23
1980-03-14,295.01
1980-03-15,298.67
1980-03-16,291.58
1980-03-17,298.49
1980-03-18,297.53
1980-03-19,299.04
1980-03-20,298.18
1980-03-21,295.19
1980-03-22,297.3
1980-03-23,291.5
1980-03-24,295.29
1980-03-25,297.09
1980-03-26,294.33
1980-03-27,294.33
1980-03-28,288.85
1980-03-29,284.47
1980-03-30,297.17
1980-03-31,292.12
1980-04-01,292.15
1980-04-02,291.84
1980-04-03,292.67
1980-04-04,291.32
1980-04-05,286.0
1980-04-06,281.05
1980-04-07,286.35
1980-04-08,290.87
1980-04-09,289.7
1980-04-10,295.35
1980-04-11,299.92
1980-04-12,296.93
1980-04-13,292.49
1980-04-14,290.2
1980-04-15,295.45
1980-04-16,297.89
1980-04-17,295.09
1980-04-18,288.9
1980-04-19,293.01
1980-04-20,295.45
1980-04-21,298.99
1980-04-22,295.89
1980-04-23,295.27
1980-04-24,294.96
1980-04-25,292.15
1980-04-26,292.2
1980-04-27,296.78
1980-04-28,298.54
1980-04-29,297.04
1980-04-30,288.74
1980-05-01,291.71
1980-05-02,283.93
1980-05-03,283.48
1980-05-04,281.53
1980-05-05,278.38
1980-05-06,278.45
1980-05-07,278.9
1980-05-08,278.5
1980-05-09,278.3
1980-05-10,284.35
1980-05-11,289.08
1980-05-12,288.64
1980-05-13,288.95
1980-05-14,297.14
1980-05-15,292.07
1980-05-16,299.43
1980-05-17,296.72
1980-05-18,298.57
1980-05-19,297.24
1980-05-20,293.03
1980-05-21,297.3
1980-05-22,298.28
1980-05-23,296.62
1980-05-24,299.12
1980-05-25,293.79
1980-05-26,297.61
1980-05-27,294.07
1980-05-28,292.28
1980-05-29,285.45
1980-05-30,290.93
1980-05-31,296.83
1980-06-01,285.98
1980-06-02,292.54
1980-06-03,293.73
1980-06-04,294.8
1980-06-05,290.48
1980-06-06,288.09
1980-06-07,290.46
1980-06-08,293.94
1980-06-09,294.18
1980-06-10,296.31
1980-06-11,292.43
1980-06-12,288.09
1980-06-13,287.75
1980-06-14,283.45
1980-06-15,294.72
1980-06-16,289.21
1980-06-17,290.64
1980-06-18,281.55
1980-06-19,288.85
1980-06-20,296.0
1980-06-21,297.87
1980-06-22,293.79
1980-06-23,288.35
1980-06-24,291.91
1980-06-25,283.65
1980-06-26,291.76
1980-06-27,292.38
1980-06-28,298.86
1980-06-29,292.72
1980-06-30,285.88
1980-07-01,289.34
1980-07-02,283.75
1980-07-03,287.42
1980-07-04,286.65
1980-07-05,293.63
1980-07-06,295.81
1980-07-07,294.96
1980-07-08,294.96
1980-07-09,296.72
1980-07-10,295.32
1980-07-11,290.41
1980-07-12,286.08
1980-07-13,295.35
1980-07-14,289.16
1980-07-15,292.49
1980-07-16,295.74
1980-07-17,295.48
1980-07-18,298.08
1980-07-19,287.44
1980-07-20,288.25
1980-07-21,289.89
1980-07-22,299.27
1980-07-23,298.47
1980-07-24,295.19
1980-07-25,295.55
1980-07-26,292.46
1980-07-27,292.38
1980-07-28,293.11
1980-07-29,293.86
1980-07-30,297.84
1980-07-31,295.37
1980-08-01,295.42
1980-08-02,294.15
1980-08-03,300.18
1980-08-04,299.27
1980-08-05,282.17
1980-08-06,273.18
1980-08-07,271.35
1980-08-08,275.68
1980-08-09,282.13
1980-08-10,288.04
1980-08-11,286.7
1980-08-12,291.19
1980-08-13,291.29
1980-08-14,296.93
1980-08-15,289.68
1980-08-16,291.99
1980-08-17,286.1
1980-08-18,295.79
1980-08-19,285.45
1980-08-20,292.9
1980-08-21,297.69
1980-08-22,292.72
1980-08-23,297.89
1980-08-24,289.83
1980-08-25,275.98
1980-08-26,267.25
1980-08-27,279.33
1980-08-28,286.83
1980-08-29,300.42
1980-08-30,297.89
1980-08-31,300.39
1980-09-01,294.49
1980-09-02,296.83
1980-09-03,291.45
1980-09-04,296.31
1980-09-05,296.26
1980-09-06,298.54
1980-09-07,298.31
1980-09-08,298.67
1980-09-09,299.32
1980-09-10,289.18
1980-09-11,295.22
1980-09-12,300.1
1980-09-13,300.21
1980-09-14,289.39
1980-09-15,273.85
1980-09-16,267.82
1980-09-17,278.15
1980-09-18,295.14
1980-09-19,295.03
1980-09-20,292.04
1980-09-21,281.57
1980-09-22,272.72
1980-09-23,260.68
1980-09-24,258.3
1980-09-25,269.9
1980-09-26,282.3
1980-09-27,294.8
1980-09-28,272.33
1980-09-29,262.3
1980-09-30,258.71
1980-10-01,262.23
1980-10-02,272.47
1980-10-03,285.13
1980-10-04,283.93
1980-10-05,294.36
1980-10-06,300.86
1980-10-07,295.32
1980-10-08,297.63
1980-10-09,298.54
1980-10-10,294.41
1980-10-11,291.99
1980-10-12,287.29
1980-10-13,278.62
1980-10-14,277.37
1980-10-15,291.13
1980-10-16,292.07
1980-10-17,288.98
1980-10-18,285.38
1980-10-19,287.73
1980-10-20,291.21
1980-10-21,292.38
1980-10-22,285.8
1980-10-23,289.05
1980-10-24,292.64
1980-10-25,294.88
1980-10-26,290.35
1980-10-27,292.85
1980-10-28,295.68
1980-10-29,291.45
1980-10-30,291.08
1980-10-31,284.8
1980-11-01,287.81
1980-11-02,297.35
1980-11-03,293.29
1980-11-04,291.0
1980-11-05,293.45
1980-11-06,289.57
1980-11-07,294.93
1980-11-08,290.07
1980-11-09,289.42
1980-11-10,286.28
1980-11-11,290.77
1980-11-12,295.68
1980-11-13,288.61
1980-11-14,293.94
1980-11-15,293.94
1980-11-16,286.67
1980-11-17,289.03
1980-11-18,281.35
1980-11-19,278.12
1980-11-20,282.47
1980-11-21,284.97
1980-11-22,294.93
1980-11-23,284.67
1980-11-24,296.75
1980-11-25,296.65